NULL Weather Reports


time (UTC)temp
C
wind
direction
speed
KPH
gust
KPH
rain 1hr
cm
rain 24hr
cm
rain mn
cm
humidity
%
barometer
mb
20260906174545 33 131 4.8 11.3 0.00 0.00 0.00 59 1011.8
20260906174513 19 334 0.0 0.0 0.38 0.61 0.61 95 1014.6
20260906173038 33 121 6.4 12.9 0.00 0.00 0.00 57 1012.0
20260906173011 19 316 0.0 0.0 0.38 0.56 0.56 94 1015.0
20260906171533 33 122 6.4 12.9 0.00 0.00 0.00 57 1012.3
20260906171510 19 314 0.0 0.0 0.33 0.46 0.46 94 1014.6
20260906170023 32 39 3.2 11.3 0.00 0.00 0.00 61 1012.5
20260906170010 19 322 0.0 1.6 0.33 0.41 0.41 92 1014.0
20260906164533 32 84 1.6 9.7 0.00 0.00 0.00 62 1012.7
20260906164505 19 317 0.0 0.0 0.20 0.23 0.23 91 1014.3
20260906163019 31 141 3.2 9.7 0.00 0.00 0.00 65 1012.8
20260906163001 20 317 0.0 0.0 0.15 0.18 0.18 89 1014.3
20260906161610 20 317 0.0 0.0 0.13 0.13 0.13 88 1014.2
20260906161508 31 59 4.8 9.7 0.00 0.00 0.00 66 1012.8
20260906160040 21 317 0.0 0.0 0.08 0.08 0.08 86 1013.6
20260906160006 31 64 3.2 12.9 0.00 0.00 0.00 67 1012.8
20260906154536 21 317 0.0 0.0 0.03 0.03 0.03 83 1013.1
20260906154509 30 124 3.2 8.0 0.00 0.00 0.00 69 1012.7
20260906153034 21 317 0.0 0.0 0.03 0.03 0.03 82 1012.9
20260906153002 30 143 1.6 6.4 0.00 0.00 0.00 70 1012.6
20260906151558 30 116 0.0 4.8 0.00 0.00 0.00 73 1012.6
20260906151533 21 317 0.0 0.0 0.00 0.00 0.00 81 1012.8
20260906150033 21 317 0.0 0.0 0.00 0.00 0.00 81 1012.5
20260906144602 28 120 0.0 4.8 0.00 0.00 0.00 77 1012.6
20260906144534 21 313 0.0 0.0 0.00 0.00 0.00 80 1012.5
20260906143047 27 332 0.0 8.0 0.00 0.00 0.00 79 1012.8
20260906143035 21 318 0.0 0.0 0.00 0.00 0.00 79 1012.8
20260906141547 26 87 1.6 6.4 0.00 0.00 0.00 81 1013.0
20260906141530 21 317 0.0 0.0 0.00 0.00 0.00 78 1012.6
20260906140042 26 17 3.2 6.4 0.00 0.00 0.00 82 1012.8
20260906140031 21 315 0.0 0.0 0.00 0.00 0.00 78 1012.4
20260906134542 25 341 3.2 6.4 0.00 0.00 0.00 82 1012.8
20260906134523 21 308 0.0 0.0 0.00 0.00 0.00 78 1012.5
20260906133038 25 336 4.8 8.0 0.00 0.00 0.00 84 1012.8
20260906133021 22 225 0.0 0.0 0.00 0.00 0.00 76 1012.7
20260906131539 24 339 3.2 4.8 0.00 0.00 0.00 84 1012.6
20260906131532 22 203 0.0 0.0 0.00 0.00 0.00 70 1012.4
20260906130045 23 9 1.6 6.4 0.00 0.00 0.00 85 1012.5
20260906130016 22 200 0.0 0.0 0.00 0.00 0.00 73 1012.1
20260906124536 23 214 0.0 0.0 0.00 0.00 0.00 85 1012.2
20260906124514 22 130 0.0 0.0 0.00 0.00 0.00 77 1011.8
20260906123034 23 359 0.0 0.0 0.00 0.00 0.00 84 1012.1
20260906123012 23 130 0.0 0.0 0.00 0.00 0.00 78 1011.4
20260906121531 23 208 0.0 0.0 0.00 0.00 0.00 84 1011.9
20260906121511 22 130 0.0 0.0 0.00 0.00 0.00 74 1011.4
20260906120030 23 210 0.0 0.0 0.00 0.00 0.00 85 1011.6
20260906120010 22 130 0.0 0.0 0.00 0.00 0.00 73 1010.8
20260906114536 23 210 0.0 0.0 0.00 0.00 0.00 85 1011.6
20260906114509 22 130 0.0 0.0 0.00 0.00 0.00 73 1010.9
20260906113028 23 209 0.0 0.0 0.00 0.00 0.00 85 1011.4
20260906113008 22 130 0.0 0.0 0.00 0.00 0.00 72 1010.8
20260906111527 23 208 0.0 0.0 0.00 0.00 0.00 85 1011.4
20260906111506 22 130 0.0 0.0 0.00 0.00 0.00 72 1010.8
20260906110037 23 210 0.0 0.0 0.00 0.00 0.00 85 1011.3
20260906110006 22 130 0.0 0.0 0.00 0.00 0.00 72 1010.9
20260906104525 23 210 0.0 0.0 0.00 0.00 0.00 85 1011.2
20260906104505 22 130 0.0 0.0 0.00 0.00 0.00 71 1011.0
20260906103024 23 359 0.0 0.0 0.00 0.00 0.00 85 1011.2
20260906103004 22 130 0.0 0.0 0.00 0.00 0.00 69 1011.1
20260906101523 23 212 0.0 0.0 0.00 0.00 0.00 84 1011.3
20260906101505 22 130 0.0 0.0 0.00 0.00 0.00 68 1011.0
20260906100022 23 211 0.0 0.0 0.00 0.00 0.00 84 1011.3
20260906100001 22 130 0.0 0.0 0.00 0.00 0.00 68 1011.0
20260906094529 23 359 0.0 0.0 0.00 0.00 0.00 85 1011.2
20260906094504 22 130 0.0 0.0 0.00 0.00 0.00 68 1011.2
20260906093100 22 130 0.0 0.0 0.00 0.00 0.00 67 1011.3
20260906093019 23 212 0.0 0.0 0.00 0.00 0.00 85 1011.1
20260906091608 22 130 0.0 0.0 0.00 0.00 0.00 67 1011.1
20260906091519 23 208 0.0 0.0 0.00 0.00 0.00 85 1010.9
20260906090059 22 130 0.0 0.0 0.00 0.00 0.00 71 1011.2
20260906090018 23 214 0.0 0.0 0.00 0.00 0.00 85 1010.8
20260906084656 22 130 0.0 0.0 0.00 0.00 0.00 72 1011.4
20260906084517 23 210 0.0 0.0 0.00 0.00 0.00 85 1010.8
20260906083055 22 130 0.0 0.0 0.00 0.00 0.00 72 1011.5
20260906083016 24 359 0.0 0.0 0.00 0.00 0.00 84 1010.7
20260906081558 22 130 0.0 0.0 0.00 0.00 0.00 72 1011.5
20260906081535 24 359 0.0 0.0 0.00 0.00 0.00 85 1010.7
20260906080014 24 209 0.0 0.0 0.00 0.00 0.00 85 1010.6
20260906074550 22 130 0.0 0.0 0.00 0.00 0.00 71 1011.4
20260906074513 24 359 0.0 0.0 0.00 0.00 0.00 85 1010.7
20260906073048 22 130 0.0 0.0 0.00 0.00 0.00 69 1011.4
20260906073010 24 359 0.0 0.0 0.00 0.00 0.00 84 1010.7
20260906071557 23 130 0.0 0.0 0.00 0.00 0.00 69 1011.7
20260906071508 25 359 0.0 0.0 0.00 0.00 0.00 84 1010.7
20260906070040 23 130 0.0 0.0 0.00 0.00 0.00 68 1011.6
20260906070007 25 209 0.0 0.0 0.00 0.00 0.00 84 1010.9
20260906064540 23 130 0.0 0.0 0.00 0.00 0.00 67 1011.5
20260906064505 25 208 0.0 0.0 0.00 0.00 0.00 84 1010.9
20260906063039 23 130 0.0 0.0 0.00 0.00 0.00 66 1011.5
20260906063007 25 208 0.0 0.0 0.00 0.00 0.00 84 1011.1
20260906061539 23 130 0.0 0.0 0.00 0.00 0.00 64 1011.6
20260906061506 25 359 0.0 0.0 0.00 0.00 0.00 84 1011.2
20260906060038 23 130 0.0 0.0 0.00 0.00 0.00 62 1011.6
20260906060002 25 359 0.0 0.0 0.00 0.00 0.00 84 1011.2
20260906054540 23 130 0.0 0.0 0.00 0.00 0.00 61 1011.7
20260906054500 25 359 0.0 0.0 0.00 0.00 0.00 84 1011.2
20260906053106 25 208 0.0 0.0 0.00 0.00 0.00 84 1011.1
20260906053039 24 130 0.0 0.0 0.00 0.00 0.00 61 1011.9
20260906051557 26 208 0.0 0.0 0.00 0.00 0.00 84 1011.2
20260906051536 24 130 0.0 0.0 0.00 0.00 0.00 61 1011.7
20260906050114 26 208 0.0 0.0 0.00 0.00 0.00 84 1011.1
20260906050037 24 130 0.0 0.0 0.00 0.00 0.00 63 1011.7
20260906044556 26 211 0.0 0.0 0.00 0.00 0.00 84 1010.9
20260906044536 24 130 0.0 0.0 0.00 0.00 0.00 67 1011.8
20260906043056 26 359 0.0 0.0 0.00 0.00 0.00 84 1010.9
20260906043037 24 130 0.0 0.0 0.00 0.00 0.00 66 1011.7
20260906041554 26 359 0.0 0.0 0.00 0.00 0.00 83 1010.9
20260906041535 24 130 0.0 0.0 0.00 0.00 0.00 65 1011.7
20260906040117 26 359 0.0 0.0 0.00 0.00 0.00 83 1010.7
20260906040038 25 130 0.0 0.0 0.00 0.00 0.00 64 1011.5
20260906034603 27 204 0.0 3.2 0.00 0.00 0.00 82 1010.6
20260906034543 25 130 0.0 0.0 0.00 0.00 0.00 63 1011.4
20260906033054 27 226 0.0 0.0 0.00 0.00 0.00 81 1010.5
20260906033034 25 129 0.0 0.0 0.00 0.00 0.00 63 1011.3
20260906031600 27 224 0.0 3.2 0.00 0.00 0.00 81 1010.5
20260906031534 25 129 0.0 0.0 0.00 0.00 0.00 62 1011.3
20260906030053 27 226 1.6 4.8 0.00 0.00 0.00 80 1010.2
20260906030032 25 132 0.0 0.0 0.00 0.00 0.00 61 1011.1
20260906024551 27 126 0.0 3.2 0.00 0.00 0.00 79 1010.1
20260906024532 25 132 0.0 0.0 0.00 0.00 0.00 60 1011.0
20260906023052 28 129 0.0 1.6 0.00 0.00 0.00 79 1010.0
20260906023032 25 124 0.0 0.0 0.00 0.00 0.00 59 1011.2
20260906021601 28 122 0.0 0.0 0.00 0.00 0.00 78 1009.9
20260906021531 26 128 0.0 0.0 0.00 0.00 0.00 57 1011.1
20260906020056 28 359 0.0 0.0 0.00 0.00 0.00 78 1009.6
20260906020034 26 149 0.0 0.0 0.00 0.00 0.00 57 1011.1
20260906014557 28 359 0.0 0.0 0.00 0.00 0.00 76 1009.4
20260906014543 26 144 0.0 0.0 0.00 0.00 0.00 57 1011.1
20260906013049 29 359 0.0 0.0 0.00 0.00 0.00 76 1009.4
20260906013033 27 161 0.0 0.0 0.00 0.00 0.00 56 1011.1
20260906011550 30 359 0.0 0.0 0.00 0.00 0.00 75 1009.2
20260906011538 27 148 0.0 0.0 0.00 0.00 0.00 51 1011.0
20260906010048 30 359 0.0 0.0 0.00 0.00 0.00 74 1009.1
20260906010029 28 150 0.0 0.0 0.00 0.00 0.00 46 1011.0
20260906004553 31 81 0.0 0.0 0.00 0.00 0.00 73 1009.1
20260906004537 28 126 0.0 0.0 0.00 0.00 0.00 41 1011.0
20260906003047 31 81 0.0 3.2 0.00 0.00 0.00 70 1009.3
20260906003044 28 153 0.0 0.0 0.00 0.00 0.00 37 1010.9
20260906001544 32 81 0.0 0.0 0.00 0.00 0.00 69 1009.2
20260906001528 28 145 0.0 0.0 0.00 0.00 0.00 35 1011.0
20260906000039 32 81 0.0 1.6 0.00 0.00 0.00 67 1009.2
20260906000026 29 168 0.0 0.0 0.00 0.00 0.00 33 1011.0
20260905234535 33 81 0.0 0.0 0.00 0.00 0.00 64 1009.1
20260905234525 30 153 0.0 0.0 0.00 0.00 0.00 32 1010.9
20260905233032 33 81 0.0 0.0 0.00 0.00 0.00 59 1009.0
20260905233025 30 153 0.0 0.0 0.00 0.00 0.00 34 1010.9
20260905231524 33 81 0.0 1.6 0.00 0.00 0.00 60 1009.0
20260905230021 31 148 0.0 0.0 0.00 0.00 0.00 34 1010.9
20260905230018 34 81 0.0 3.2 0.00 0.00 0.00 57 1008.9
20260905224526 31 137 0.0 0.0 0.00 0.00 0.00 33 1011.0
20260905224513 35 40 0.0 4.8 0.00 0.00 0.00 55 1008.9
20260905223025 35 122 4.8 9.7 0.00 0.00 0.00 48 1009.0
20260905223017 30 144 0.0 0.0 0.00 0.00 0.00 34 1011.1
20260905221515 30 140 0.0 0.0 0.00 0.00 0.00 35 1011.3
20260905221502 35 52 1.6 9.7 0.00 0.00 0.00 48 1009.0
20260905220016 30 156 0.0 0.0 0.00 0.00 0.00 37 1011.3
20260905214550 36 18 3.2 11.3 0.00 0.00 0.00 45 1009.2
20260905214512 30 141 0.0 0.0 0.00 0.00 0.00 38 1011.5
20260905213042 35 235 0.0 8.0 0.00 0.00 0.00 45 1009.4
20260905213022 30 140 0.0 0.0 0.00 0.00 0.00 38 1011.8
20260905211543 35 54 3.2 8.0 0.00 0.00 0.00 47 1009.7
20260905211508 31 140 0.0 0.0 0.00 0.00 0.00 37 1011.9
20260905210026 35 311 4.8 12.9 0.00 0.00 0.00 48 1010.1
20260905210011 31 174 0.0 0.0 0.00 0.00 0.00 38 1011.9
20260905204520 35 41 1.6 8.0 0.00 0.00 0.00 47 1010.1
20260905204507 31 177 0.0 0.0 0.00 0.00 0.00 39 1012.0
20260905203115 36 32 3.2 8.0 0.00 0.00 0.00 47 1010.3
20260905203005 31 175 0.0 0.0 0.00 0.00 0.00 37 1012.1
20260905201509 35 291 0.0 9.7 0.00 0.00 0.00 48 1010.3
20260905201504 31 140 0.0 0.0 0.00 0.00 0.00 39 1012.1
20260905200003 31 137 0.0 0.0 0.00 0.00 0.00 42 1012.3
20260905200001 35 4 4.8 9.7 0.00 0.00 0.00 48 1010.6
20260905194557 35 354 6.4 9.7 0.00 0.00 0.00 49 1010.8
20260905194503 31 137 0.0 0.0 0.00 0.00 0.00 44 1012.4
20260905193109 31 135 0.0 1.6 0.00 0.00 0.00 39 1012.6
20260905193049 34 327 3.2 8.0 0.00 0.00 0.00 53 1010.9
20260905191600 30 147 0.0 0.0 0.00 0.00 0.00 37 1012.8
20260905191544 33 68 4.8 9.7 0.00 0.00 0.00 56 1011.0
20260905190059 30 125 0.0 0.0 0.00 0.00 0.00 42 1013.1
20260905190038 33 69 1.6 4.8 0.00 0.00 0.00 56 1011.1
20260905184550 29 156 0.0 0.0 0.00 0.00 0.00 42 1013.2
20260905184536 34 92 1.6 4.8 0.00 0.00 0.00 54 1011.2
20260905183052 28 148 0.0 0.0 0.00 0.00 0.00 42 1013.3
20260905183027 34 154 3.2 6.4 0.00 0.00 0.00 54 1011.4
20260905181547 28 143 0.0 0.0 0.00 0.00 0.00 45 1013.5
20260905181522 34 133 4.8 11.3 0.00 0.00 0.00 55 1011.5
20260905180121 35 120 1.6 4.8 0.00 0.00 0.00 55 1011.7
20260905180044 27 175 0.0 0.0 0.00 0.00 0.00 50 1013.7